Regional Weather Roundup
Issued by NWS

Home | Current Version | Previous Version | Graphics & Text | Print | Product List | Glossary On
Versions: 1 2 3 4 5 6 7 8 9 10 11 12 13 14 15 16 17 18 19 20 21 22 23 24 25 26 27 28 29 30 31 32 33 34 35 36 37 38 39 40 41 42 43 44 45 46 47 48 49 50
000
ASUS43 KBIS 190010
RWRND

NORTH DAKOTA REGIONAL WEATHER ROUNDUP
NATIONAL WEATHER SERVICE BISMARCK ND
700 PM CDT THU SEP 18 2014

NOTE: "FAIR" INDICATES FEW OR NO CLOUDS BELOW 12,000 FEET WITH NO
SIGNIFICANT WEATHER AND/OR OBSTRUCTIONS TO VISIBILITY.


NDZ001>003-009>011-017-190100-
NORTHWEST NORTH DAKOTA

CITY           SKY/WX    TMP DP  RH WIND       PRES   REMARKS
WILLISTON      CLOUDY    77  52  41 SW9       29.59
6HR MIN TEMP:  76; 6HR MAX TEMP:  83;

MINOT          CLOUDY    76  62  62 S15       29.59
MINOT AFB      CLOUDY    76  64  67 SW17      29.57
$$

NDZ018>021-031>035-040>046-190100-
SOUTHWEST NORTH DAKOTA

CITY           SKY/WX    TMP DP  RH WIND       PRES   REMARKS
BISMARCK       CLOUDY    76  63  64 S10       29.69
6HR MIN TEMP:  76; 6HR MAX TEMP:  83;

DICKINSON      LGT RAIN  71  61  70 CALM      29.68
GARRISON         N/A     74  65  73 S10       29.64F
6HR MIN TEMP:  72; 6HR MAX TEMP:  78;

HETTINGER ARPT CLOUDY    75  62  64 SE5       29.75
$$

NDZ004>008-012>016-024-026-027-054-190100-
NORTHEAST NORTH DAKOTA

CITY           SKY/WX    TMP DP  RH WIND       PRES   REMARKS
GRAND FORKS    MOCLDY    71  58  63 S13       29.75
GRND FRKS AFB  MOCLDY    70  60  72 SE14      29.73
DEVILS LAKE    CLOUDY    73  61  64 S17       29.66S
$$

NDZ022-023-025-028>030-036>039-047>053-190100-
SOUTHEAST NORTH DAKOTA

CITY           SKY/WX    TMP DP  RH WIND       PRES   REMARKS
FARGO          PTCLDY    75  59  57 S13G23    29.79
6HR MIN TEMP:  65; 6HR MAX TEMP:  76;

JAMESTOWN      MOCLDY    73  61  65 S15G22    29.72
$$




USA.gov is the U.S. government's official web portal to all federal, state and local government web resources and services.